Clarksburg, WV

9:13 PM EST on December 06, 2019 (GMT -0500)
Benedum

Weather History for KCKB - June, 2019

Change the Weather History Date:

Sunday, June 9, 2019

  Actual Average Record
Temperature  
Mean Temperature 74 °F -  
Max Temperature 83 °F 82 °F 97 °F (1933)
Min Temperature 64 °F 55 °F 37 °F (1977)
Cooling Degree Days 9    
Month to date cooling degree days 42  
Year to date cooling degree days 221  
Since 1 June cooling degree days 42  
Growing Degree Days 23 (Base 50)    
Moisture  
Dew Point 58 °F    
Average Humidity 63    
Maximum Humidity 76    
Minimum Humidity 49    
Precipitation  
Precipitation T in - - ()
Month to date precipitation 0.67  
Year to date precipitation 18.44  
Sea Level Pressure  
Sea Level Pressure 30.03 in    
Wind  
Wind Speed 9 mph (East)    
Max Wind Speed 20 mph    
Max Gust Speed 28 mph    
Visibility 10 miles    
Events Rain    
Averages and records for this station are not official NWS values.
T = Trace of Precipitation, MM = Missing Value Source: NWS Daily Summary

Daily Weather History Graph

Daily Weather History Graph

Search for Another Location

Airport or City:

Astronomy

Jun. 09, 2019 Rise Set
Actual Time 5:54 AM EDT 8:46 PM EDT
Civil Twilight 5:22 AM EDT 9:18 PM EDT
Nautical Twilight 4:41 AM EDT 9:59 PM EDT
Astronomical Twilight 3:55 AM EDT 10:45 PM EDT
Moon 12:29 PM EDT (6/9) 1:26 AM EDT (6/9)
Length of Visible Light 15h 56m
Length of Day
14h 52m
Waxing Crescent, 43% of the Moon is Illuminated
Jun 9
Waxing Crescent
Jun 10
First Quarter
Jun 17
Full
Jun 25
Last Quarter
Jul 2
New

Hourly Weather History & Observations

Time (EDT) Temp. Heat Index Dew Point Humidity Pressure Visibility Wind Dir Wind Speed Gust Speed Precip Events Conditions
12:53 AM 73.0 °F - 54.0 °F 51% 30.02 in 10.0 mi East 9.2 mph - N/A   Clear
1:53 AM 72.0 °F - 52.0 °F 49% 30.02 in 10.0 mi East 9.2 mph - N/A   Clear
2:53 AM 72.0 °F - 52.0 °F 49% 30.01 in 10.0 mi East 6.9 mph - N/A   Clear
3:53 AM 71.1 °F - 52.0 °F 51% 30.01 in 10.0 mi East 6.9 mph - N/A   Clear
4:53 AM 68.0 °F - 53.1 °F 59% 30.00 in 10.0 mi NNE 3.5 mph - N/A   Clear
5:53 AM 64.9 °F - 54.0 °F 68% 30.02 in 10.0 mi ENE 4.6 mph - N/A   Clear
6:53 AM 68.0 °F - 55.0 °F 63% 30.04 in 10.0 mi ENE 6.9 mph - N/A   Clear
7:53 AM 66.9 °F - 55.0 °F 66% 30.06 in 10.0 mi ENE 6.9 mph - N/A   Clear
8:53 AM 71.1 °F - 57.9 °F 63% 30.07 in 10.0 mi ENE 8.1 mph - N/A   Clear
9:53 AM 73.9 °F - 60.1 °F 62% 30.07 in 9.0 mi East 10.4 mph - N/A   Mostly Cloudy
10:53 AM 78.1 °F - 59.0 °F 52% 30.06 in 10.0 mi ESE 13.8 mph 21.9 mph N/A   Partly Cloudy
11:53 AM 79.0 °F - 61.0 °F 54% 30.06 in 10.0 mi East 15.0 mph 21.9 mph 0.00 in Rain Light Rain
12:53 PM 81.0 °F 81.7 °F 61.0 °F 50% 30.04 in 10.0 mi ESE 16.1 mph 21.9 mph 0.00 in Rain Light Rain
1:53 PM 81.0 °F 82.2 °F 63.0 °F 54% 30.02 in 10.0 mi East 10.4 mph 18.4 mph 0.00 in Rain Light Rain
2:53 PM 82.0 °F 83.1 °F 63.0 °F 52% 30.02 in 10.0 mi ESE 16.1 mph 21.9 mph 0.00 in Rain Light Rain
3:53 PM 79.0 °F - 62.1 °F 56% 30.02 in 10.0 mi East 16.1 mph 20.7 mph 0.00 in   Overcast
4:53 PM 77.0 °F - 61.0 °F 58% 30.02 in 10.0 mi East 15.0 mph - N/A   Mostly Cloudy
5:53 PM 75.9 °F - 61.0 °F 60% 30.02 in 10.0 mi ESE 11.5 mph 19.6 mph N/A   Overcast
6:53 PM 75.0 °F - 62.1 °F 64% 30.01 in 10.0 mi ENE 8.1 mph - N/A   Scattered Clouds
7:53 PM 73.0 °F - 61.0 °F 66% 30.01 in 10.0 mi East 8.1 mph - N/A   Clear
8:53 PM 71.1 °F - 59.0 °F 66% 30.01 in 10.0 mi ENE 8.1 mph - N/A   Clear
9:53 PM 69.1 °F - 59.0 °F 70% 30.02 in 10.0 mi NE 5.8 mph - 0.00 in Rain Light Rain
10:53 PM 69.1 °F - 60.1 °F 73% 30.01 in 10.0 mi NE 4.6 mph - 0.00 in   Scattered Clouds
11:53 PM 68.0 °F - 60.1 °F 76% 30.01 in 10.0 mi NE 4.6 mph - N/A   Overcast